Benson, MN

5:50 AM CST on February 09, 2016 (GMT -0600)
Benson Municipal

Weather History for KBBB - October, 2011

Change the Weather History Date:

Sunday, October 30, 2011

  Actual Average Record
Temperature  
Mean Temperature 38 °F -  
Max Temperature 44 °F 51 °F 74 °F (1965)
Min Temperature 32 °F 32 °F 13 °F (1991)
Degree Days  
Heating Degree Days 26    
Moisture  
Dew Point 35 °F    
Average Humidity 79    
Maximum Humidity 93    
Minimum Humidity 46    
Precipitation  
Precipitation 0.07 in - - ()
Sea Level Pressure  
Sea Level Pressure 29.86 in    
Wind  
Wind Speed 10 mph (NNW)    
Max Wind Speed 17 mph    
Max Gust Speed 22 mph    
Visibility 10 miles    
Events Rain    
Averages and records for this station are not official NWS values.
T = Trace of Precipitation, MM = Missing Value Source: NWS Daily Summary

Daily Weather History Graph

Daily Weather History Graph

Search for Another Location

Airport or City:

Trip Planner

Search our weather history database for the weather conditions in past years. The results will help you decide how hot, cold, wet, or windy it might be!

Date:

Astronomy

Oct. 30, 2011 Rise Set
Actual Time 7:58 AM CDT 6:13 PM CDT
Civil Twilight 7:27 AM CDT 6:43 PM CDT
Nautical Twilight 6:53 AM CDT 7:18 PM CDT
Astronomical Twilight 6:18 AM CDT 7:52 PM CDT
Moon 12:27 PM CDT (10/30) 9:35 PM CDT (10/30)
Length of Visible Light 11h 15m
Length of Day
10h 14m
Waxing Crescent, 20% of the Moon is Illuminated
Oct 30
Waxing Crescent
Nov 2
First Quarter
Nov 10
Full
Nov 18
Last Quarter
Nov 25
New

Hourly Weather History & Observations

Time (CDT) Temp. Windchill Dew Point Humidity Pressure Visibility Wind Dir Wind Speed Gust Speed Precip Events Conditions
12:13 AM 44.6 °F 38.8 °F 24.8 °F 46% 29.80 in 10.0 mi South 11.5 mph 18.4 mph N/A   Mostly Cloudy
12:33 AM 44.6 °F 39.2 °F 24.8 °F 46% 29.79 in 10.0 mi South 10.4 mph - N/A   Overcast
12:52 AM 44.6 °F 38.8 °F 26.6 °F 49% 29.78 in 10.0 mi South 11.5 mph - N/A   Overcast
1:13 AM 44.6 °F 39.7 °F 26.6 °F 49% 29.79 in 10.0 mi South 9.2 mph - N/A   Overcast
1:32 AM 44.6 °F 40.2 °F 26.6 °F 49% 29.79 in 10.0 mi South 8.1 mph - N/A   Overcast
1:52 AM 42.8 °F 39.3 °F 26.6 °F 53% 29.78 in 10.0 mi SSW 5.8 mph 11.5 mph N/A   Overcast
2:13 AM 42.8 °F 39.3 °F 26.6 °F 53% 29.79 in 10.0 mi South 5.8 mph - N/A   Mostly Cloudy
2:32 AM 42.8 °F 39.3 °F 26.6 °F 53% 29.79 in 10.0 mi SSW 5.8 mph - N/A   Overcast
3:13 AM 42.8 °F 40.1 °F 26.6 °F 53% 29.78 in 10.0 mi SSW 4.6 mph - N/A   Overcast
3:52 AM 41.0 °F 39.0 °F 26.6 °F 57% 29.78 in 10.0 mi SW 3.5 mph - N/A   Mostly Cloudy
4:13 AM 42.8 °F - 26.6 °F 53% 29.78 in 10.0 mi Calm Calm - N/A   Mostly Cloudy
4:32 AM 42.8 °F 41.1 °F 28.4 °F 57% 29.78 in 10.0 mi North 3.5 mph - N/A   Overcast
4:52 AM 42.8 °F - 30.2 °F 61% 29.78 in 10.0 mi Calm Calm - N/A   Overcast
5:13 AM 41.0 °F 39.0 °F 37.4 °F 87% 29.78 in 10.0 mi North 3.5 mph - N/A Rain Rain
5:32 AM 41.0 °F 37.1 °F 37.4 °F 87% 29.79 in 10.0 mi North 5.8 mph - N/A Rain Light Rain
5:52 AM 42.8 °F 38.6 °F 39.2 °F 87% 29.79 in 10.0 mi NNW 6.9 mph - N/A   Light Drizzle
6:13 AM 42.8 °F 35.8 °F 39.2 °F 87% 29.79 in 7.0 mi NNW 13.8 mph 18.4 mph N/A Rain Rain
6:32 AM 42.8 °F 35.8 °F 41.0 °F 93% 29.80 in 10.0 mi NNW 13.8 mph 19.6 mph 0.01 in Rain Light Rain
6:52 AM 42.8 °F 35.4 °F 41.0 °F 93% 29.81 in 10.0 mi NNW 15.0 mph - 0.03 in Rain Light Rain
6:55 AM 42.8 °F 35.4 °F 39.2 °F 87% 29.81 in 10.0 mi NNW 15.0 mph 19.6 mph 0.03 in Rain Light Rain
7:13 AM 41.0 °F 33.5 °F 39.2 °F 93% 29.81 in 10.0 mi North 13.8 mph - 0.01 in Rain Light Rain
7:32 AM 41.0 °F 33.5 °F 39.2 °F 93% 29.82 in 10.0 mi North 13.8 mph 19.6 mph 0.02 in Rain Light Rain
7:53 AM 41.0 °F 35.2 °F 39.2 °F 93% 29.82 in 7.0 mi North 9.2 mph - 0.03 in Rain Light Rain
8:12 AM 41.0 °F 35.2 °F 39.2 °F 93% 29.83 in 7.0 mi North 9.2 mph - N/A Rain Light Rain
8:32 AM 41.0 °F 33.5 °F 39.2 °F 93% 29.83 in 10.0 mi North 13.8 mph 17.3 mph 0.01 in Rain Light Rain
8:55 AM 41.0 °F 34.3 °F 39.2 °F 93% 29.84 in 10.0 mi North 11.5 mph 16.1 mph 0.01 in   Light Drizzle
9:12 AM 41.0 °F 34.7 °F 39.2 °F 93% 29.84 in 10.0 mi NNW 10.4 mph - N/A   Overcast
9:33 AM 41.0 °F 33.1 °F 37.4 °F 87% 29.84 in 10.0 mi NNW 15.0 mph 18.4 mph N/A   Mostly Cloudy
9:53 AM 41.0 °F 33.9 °F 37.4 °F 87% 29.85 in 10.0 mi NNW 12.7 mph - N/A   Overcast
10:12 AM 39.2 °F 32.5 °F 37.4 °F 93% 29.85 in 10.0 mi NNW 10.4 mph - N/A   Overcast
10:33 AM 39.2 °F 31.2 °F 37.4 °F 93% 29.85 in 10.0 mi NNW 13.8 mph - N/A   Overcast
10:53 AM 39.2 °F 31.2 °F 37.4 °F 93% 29.85 in 10.0 mi NNW 13.8 mph - N/A   Overcast
11:12 AM 41.0 °F 34.3 °F 37.4 °F 87% 29.85 in 10.0 mi NNW 11.5 mph 17.3 mph N/A   Overcast
11:33 AM 41.0 °F 33.1 °F 37.4 °F 87% 29.85 in 10.0 mi NNW 15.0 mph - N/A   Overcast
11:52 AM 41.0 °F 33.1 °F 37.4 °F 87% 29.86 in 10.0 mi NNW 15.0 mph 19.6 mph N/A   Overcast
12:12 PM 42.8 °F 35.4 °F 37.4 °F 81% 29.86 in 10.0 mi NNW 15.0 mph 19.6 mph N/A   Overcast
12:33 PM 42.8 °F 35.8 °F 37.4 °F 81% 29.86 in 10.0 mi NNW 13.8 mph 19.6 mph N/A   Overcast
12:52 PM 42.8 °F 36.2 °F 37.4 °F 81% 29.86 in 10.0 mi NNW 12.7 mph - N/A   Overcast
1:12 PM 42.8 °F 35.1 °F 37.4 °F 81% 29.86 in 10.0 mi NNW 16.1 mph 21.9 mph N/A   Overcast
1:33 PM 42.8 °F 35.1 °F 35.6 °F 76% 29.86 in 10.0 mi NNW 16.1 mph 20.7 mph N/A   Overcast
1:52 PM 42.8 °F 35.4 °F 35.6 °F 76% 29.86 in 10.0 mi NNW 15.0 mph 20.7 mph N/A   Overcast
2:13 PM 42.8 °F 35.4 °F 35.6 °F 76% 29.87 in 10.0 mi North 15.0 mph 20.7 mph N/A   Overcast
2:32 PM 42.8 °F 35.8 °F 35.6 °F 76% 29.87 in 10.0 mi NNW 13.8 mph - N/A   Overcast
2:52 PM 42.8 °F 35.1 °F 35.6 °F 76% 29.88 in 10.0 mi NNW 16.1 mph 20.7 mph N/A   Overcast
3:13 PM 42.8 °F 34.8 °F 35.6 °F 76% 29.88 in 10.0 mi NNW 17.3 mph 21.9 mph N/A   Overcast
3:32 PM 42.8 °F 35.8 °F 35.6 °F 76% 29.89 in 10.0 mi NNW 13.8 mph 20.7 mph N/A   Overcast
4:13 PM 42.8 °F 35.1 °F 35.6 °F 76% 29.90 in 10.0 mi NNW 16.1 mph 21.9 mph N/A   Overcast
4:32 PM 42.8 °F 35.1 °F 35.6 °F 76% 29.91 in 10.0 mi NNW 16.1 mph - N/A   Overcast
4:53 PM 42.8 °F 36.6 °F 35.6 °F 76% 29.92 in 10.0 mi NNW 11.5 mph 17.3 mph N/A   Overcast
5:12 PM 42.8 °F 35.4 °F 35.6 °F 76% 29.93 in 10.0 mi NNW 15.0 mph - N/A   Overcast
5:32 PM 41.0 °F 34.3 °F 35.6 °F 81% 29.93 in 10.0 mi NNW 11.5 mph - N/A   Overcast
5:53 PM 41.0 °F 34.7 °F 35.6 °F 81% 29.94 in 10.0 mi NNW 10.4 mph - N/A   Overcast
6:12 PM 41.0 °F 35.2 °F 35.6 °F 81% 29.94 in 10.0 mi NNW 9.2 mph - N/A   Overcast
6:32 PM 41.0 °F 34.3 °F 35.6 °F 81% 29.95 in 10.0 mi NNW 11.5 mph - N/A   Overcast
6:53 PM 41.0 °F 34.3 °F 35.6 °F 81% 29.95 in 10.0 mi NNW 11.5 mph - N/A   Overcast
7:12 PM 39.2 °F 31.6 °F 35.6 °F 87% 29.96 in 10.0 mi NNW 12.7 mph - N/A   Overcast
7:32 PM 37.4 °F 31.4 °F 35.6 °F 93% 29.96 in 10.0 mi North 8.1 mph - N/A   Scattered Clouds
7:53 PM 37.4 °F 32.1 °F 33.8 °F 87% 29.97 in 10.0 mi NNW 6.9 mph - N/A   Scattered Clouds
8:12 PM 37.4 °F 33.8 °F 33.8 °F 87% 29.97 in 10.0 mi North 4.6 mph - N/A   Mostly Cloudy
8:32 PM 35.6 °F 29.9 °F 33.8 °F 93% 29.97 in 10.0 mi North 6.9 mph - N/A   Scattered Clouds
8:53 PM 35.6 °F 29.9 °F 32.0 °F 87% 29.97 in 10.0 mi North 6.9 mph - N/A   Clear
9:12 PM 33.8 °F 28.6 °F 32.0 °F 93% 29.97 in 10.0 mi North 5.8 mph - N/A   Clear
9:32 PM 32.0 °F 27.5 °F 30.2 °F 93% 29.98 in 10.0 mi NNW 4.6 mph - N/A   Clear
9:52 PM 30.2 °F 24.3 °F 30.2 °F 100% 29.98 in 10.0 mi NW 5.8 mph - N/A   Clear
10:12 PM 30.2 °F 24.3 °F 28.4 °F 93% 29.99 in 10.0 mi NW 5.8 mph - N/A   Clear
10:33 PM 30.2 °F 24.3 °F 28.4 °F 93% 29.99 in 10.0 mi NW 5.8 mph - N/A   Clear
10:53 PM 30.2 °F 24.3 °F 28.4 °F 93% 29.99 in 10.0 mi NNW 5.8 mph - N/A   Clear
11:12 PM 30.2 °F 23.4 °F 28.4 °F 93% 29.99 in 10.0 mi NNW 6.9 mph - N/A   Clear
11:33 PM 28.4 °F 22.2 °F 28.4 °F 100% 29.99 in 10.0 mi NW 5.8 mph - N/A   Clear
11:52 PM 28.4 °F 23.3 °F 26.6 °F 93% 29.99 in 10.0 mi NW 4.6 mph - N/A   Clear